Location: ????? ??????
(37.8317°N, 23.8750°E)
Time: 18:02:41
(UTC+00:00)

Hubble Space Telescope - Pass Details

Date: 20 January 2021
Orbit: 536 x 539 km, 28.5° (Epoch: 01 March)

Event Time Altitude Azimuth Distance (km) Brightness Sun altitude
Rises 16:24:12 0° 232° (SW) 2,670 5.8 -9.9°
Reaches altitude 10° 16:27:00 10° 213° (SSW) 1,781 4.2 -10.5°
Maximum altitude 16:29:51 18° 169° (S) 1,346 2.9 -11.0°
Drops below altitude 10° 16:32:42 10° 126° (SE) 1,784 3.1 -11.5°
Enters shadow 16:33:21 - 120° (ESE) 1,969 3.2 -11.7°
